CPA764 VVTS-VHHH

Flight info

Callsign CPA764
Flight time N/A
Altitude 37000
Route PATMA5A PATMA W12 PCA G221 BUNTA A1 IKELA/N0483F370 P901 IDOSI V561 CANTO
Aircraft B77W/H-SDE1E2E3FGHIJ2J3J4J5M1RWXY/LB1D1

Departure

Time 2026-05-04 11:20
Airport Tan Son Nhat International Airport (VVTS)

Arrival

Time N/A
Airport Hong Kong International Airport (VHHH)
Time Latitude Longitude Altitude Speed Heading
2026-05-04 10:47 10.81783 106.66438 42 ft 0 kts 159°
2026-05-04 11:12 10.81863 106.66380 39 ft 4 kts 77°
2026-05-04 11:12 10.81854 106.66354 39 ft 4 kts 66°
2026-05-04 11:12 10.81850 106.66344 40 ft 0 kts 69°
2026-05-04 11:16 10.82065 106.66625 38 ft 5 kts 44°
2026-05-04 11:16 10.82082 106.66657 38 ft 5 kts 69°
2026-05-04 11:16 10.82097 106.66696 38 ft 7 kts 70°
2026-05-04 11:17 10.82117 106.66750 37 ft 9 kts 69°
2026-05-04 11:17 10.82142 106.66815 37 ft 10 kts 69°
2026-05-04 11:19 10.82334 106.66856 39 ft 10 kts 250°
2026-05-04 11:19 10.82229 106.66578 38 ft 82 kts 249°
2026-05-04 11:19 10.81928 106.65786 45 ft 154 kts 249°
2026-05-04 11:19 10.81495 106.64598 204 ft 192 kts 249°
2026-05-04 11:20 10.81054 106.63345 953 ft 184 kts 246°
2026-05-04 11:20 10.80565 106.62096 1570 ft 196 kts 244°
2026-05-04 11:20 10.80033 106.60781 2112 ft 209 kts 243°
2026-05-04 11:20 10.79447 106.59321 2388 ft 237 kts 245°
2026-05-04 11:22 10.85326 106.50305 7754 ft 288 kts 342°
2026-05-04 11:22 10.87209 106.49586 8556 ft 291 kts 341°
2026-05-04 11:24 10.97678 106.56264 10800 ft 370 kts 52°